Regional Weather Roundup
Issued by NWS

Home | Current Version | Previous Version | Text Only | Print | Product List | Glossary Off
Versions: 1 2 3 4 5 6 7 8 9 10 11 12 13 14 15 16 17 18 19 20 21 22 23 24 25 26 27 28 29 30 31 32 33 34 35 36 37 38 39 40 41 42 43 44 45 46 47 48 49 50

000
ASUS45 KSLC 230010
RWRUT

UTAH REGIONAL WEATHER ROUNDUP
NATIONAL WEATHER SERVICE SALT LAKE CITY UT
600 PM MDT FRI AUG 22 2014

UTZ001>011-023>025-230100-

NORTHERN UTAH

CITY           SKY/WX    TMP DP  RH WIND       PRES   REMARKS
HILL AFB       TSTM      59  54  82 SE7       30.02F
LOGAN          LGT RAIN  57  57 100 SE13      30.01F
OGDEN          LGT RAIN  61  57  87 E14       29.97F
PROVO AIRPORT  NOT AVBL
SALT LAKE CITY RAIN      61  56  83 NE17      29.98R
VERNAL         LGT RAIN  64  52  64 NW9G22    29.99F
WENDOVER       CLOUDY    66  55  68 S10       29.96F
HEBER CITY     LGT RAIN  70  46  43 NE26G36   29.94R
WEST JORDAN    CLOUDY    61  61 100 NW10      30.02R

$$

UTZ012>022-026-027-230100-

SOUTHERN UTAH

CITY           SKY/WX    TMP DP  RH WIND       PRES   REMARKS
BRYCE CANYON   CLOUDY    66  47  50 CALM      30.17F
CEDAR CITY     SUNNY     76  41  28 SW16G25   30.03F
MILFORD        SUNNY     82  44  26 S25G36    29.94F
MOAB/CYNLANDS  PTSUNNY   79  49  34 SE15      29.94F
PRICE          LGT RAIN  63  55  75 NE8       30.03F
ST GEORGE      CLOUDY    88  52  29 W12       29.89F
KANAB            N/A     79  46  31 SW12G17   30.05S

$$

REGIONAL REPORTS     COLORADO/ARIZONA

CITY           SKY/WX    TMP DP  RH WIND       PRES   REMARKS
CRAIG, CO      CLOUDY    65  54  67 E3        30.08F
GRAND JUNCTION LGT RAIN  65  58  78 SE16      30.02R
RIFLE          CLOUDY    66  54  65 W12       30.04S
MONTROSE       CLOUDY    65  57  75 S12       30.13R
CORTEZ         MOSUNNY   60  55  83 E16       30.15F
PAGE, AZ       MOSUNNY   83  48  29 S10       29.97F
GRAND CANYON   SUNNY     72  46  39 S13       30.19R
KINGMAN        SUNNY     83  51  33 SW9G22    29.99F
FLAGSTAFF      SUNNY     66  47  50 SW13G22   30.23S

$$

REGIONAL REPORTS    NEVADA/IDAHO/WYOMING

CITY           SKY/WX    TMP DP  RH WIND       PRES   REMARKS
LAS VEGAS, NV  MOSUNNY   94  47  20 S21G26    29.79F HX  90
ELY            TSTM      57  53  86 W3        30.06R
ELKO           PTSUNNY   75  35  23 N16       29.93R
POCATELLO, ID  TSTM      57  55  93 SE9       30.00F
BURLEY         PTSUNNY   62  52  69 E6        29.94F
EVANSTON, WY   CLOUDY    52  47  83 N20G32    30.14R
ROCK SPRINGS   CLOUDY    58  49  72 NW12      30.09R

$$


USA.gov is the U.S. government's official web portal to all federal, state and local government web resources and services.